Regional Weather Roundup
Issued by NWS

Home | Current Version | Previous Version | Text Only | Print | Product List | Glossary Off
Versions: 1 2 3 4 5 6 7 8 9 10 11 12 13 14 15 16 17 18 19 20 21 22 23 24 25 26 27 28 29 30 31 32 33 34 35 36 37 38 39 40 41 42 43 44 45 46 47 48 49 50

356
ASUS45 KPSR 201710
RWRAZ

ARIZONA HOURLY REGIONAL WEATHER ROUNDUP
NATIONAL WEATHER SERVICE PHOENIX AZ
1000 AM MST MON NOV 20 2017

NOTE: FAIR INDICATES FEW OR NO CLOUDS BELOW 12,000 FEET WITH NO
SIGNIFICANT WEATHER AND/OR OBSTRUCTIONS TO VISIBILITY.

AZZ001>003-036-201800-
NORTHWEST ARIZONA

CITY           SKY/WX    TMP DP  RH WIND       PRES   REMARKS
BULLHEAD CITY  PTSUNNY   54  18  24 CALM      30.10R
KINGMAN        SUNNY     62  17  17 SE9       30.11S
$$

AZZ004>008-015-016-018-201800-
NORTH CENTRAL ARIZONA

CITY           SKY/WX    TMP DP  RH WIND       PRES   REMARKS
GRAND CANYON   SUNNY     50   9  19 SW8       30.22S
WILLIAMS       MOSUNNY   55   7  14 VRB6      30.22S
PRESCOTT       PTSUNNY   47  12  24 VRB3      30.20R
FLAGSTAFF      SUNNY     50  11  20 SW6       30.22S
PAYSON           N/A     55  12  18 E3        30.21R
PAGE           MOSUNNY   41  10  28 CALM      30.20S
$$

AZZ009>014-017-201800-
NORTHEAST ARIZONA

CITY           SKY/WX    TMP DP  RH WIND       PRES   REMARKS
WINSLOW        SUNNY     38   7  27 SE6       30.23S WCI  33
SAINT JOHNS    SUNNY     40   7  25 CALM      30.20F
WINDOW ROCK    SUNNY     39   4  23 CALM      30.22S
SHOW LOW       SUNNY     55  14  19 S6        30.22R HAZE
$$

AZZ540-542>544-546-548-201800-
GREATER PHOENIX AREA

CITY           SKY/WX    TMP DP  RH WIND       PRES   REMARKS
PHOENIX        PTSUNNY   66  22  18 E7        30.06R
BUCKEYE        MOSUNNY   63  61  94 S5        30.07S
LUKE AFB       SUNNY     63  27  26 CALM      30.06R
DEER VALLEY    PTSUNNY   63  18  17 CALM      30.07R
SCOTTSDALE     PTSUNNY   63  25  23 CALM      30.08R
MESA-FALCON    PTSUNNY   64  19  17 N10       30.08R
MESA-GATEWAY   MOSUNNY   61  23  23 CALM      30.08R
CHANDLER       PTSUNNY   61  27  27 CALM      30.08R
$$

AZZ539-553-201800-
SOUTHWEST MARICOPA COUNTY AND PINAL COUNTY

CITY           SKY/WX    TMP DP  RH WIND       PRES   REMARKS
CASA GRANDE    NOT AVBL
$$

AZZ503-504-507>509-201800-
SOUTHEAST ARIZONA

CITY           SKY/WX    TMP DP  RH WIND       PRES   REMARKS
TUCSON         SUNNY     66  27  23 S8        30.11R
DAVIS-MONTHAN  SUNNY     65  26  23 S6        30.08R
RYAN FIELD     SUNNY     63  30  29 MISG      30.10R
NOGALES        SUNNY     63  27  25 CALM      30.13S
SIERRA VISTA   SUNNY     63  24  23 SE9       30.18S
DOUGLAS        SUNNY     55  23  28 S6        30.16F
SAFFORD        SUNNY     58  14  17 SE12      30.15S
$$

AZZ532-201800-
SOUTHWEST ARIZONA

CITY           SKY/WX    TMP DP  RH WIND       PRES   REMARKS
YUMA           PTSUNNY   66  20  17 NE7       30.03R
$$

CAZ041-043-047-048-061-525>527-560>570-201800-
SOUTHERN CALIFORNIA

CITY           SKY/WX    TMP DP  RH WIND       PRES   REMARKS
DOWNTOWN L.A.  SUNNY     63  35  35 CALM      30.04S
L.A. AIRPORT   PTSUNNY   65  37  35 SE6       30.05S
SAN DIEGO      MOSUNNY   63  31  30 CALM      30.07R
BURBANK        MOSUNNY   61  32  33 S3        30.05S
ONTARIO        CLOUDY    60  20  21 CALM      30.07R
RIVERSIDE      PTSUNNY   58  29  33 CALM      30.07R
PALM SPRINGS   PTSUNNY   61  30  31 N3        30.06S
EL CENTRO NAS  MOSUNNY   60  22  23 W5        30.05R
IMPERIAL       MOSUNNY   61  29  29 W5        30.03S
BLYTHE         PTSUNNY   57  11  16 CALM      30.07S
NEEDLES        PTSUNNY   58   7  13 CALM      30.09R
$$

NVZ020-UTZ003-201800-
SOUTHERN NEVADA-UTAH

CITY           SKY/WX    TMP DP  RH WIND       PRES   REMARKS
LAS VEGAS      PTSUNNY   53  13  20 CALM      30.11R
SALT LAKE CITY PTSUNNY   40  31  70 NW3       30.09R
$$

NMZ009-TXZ055-201800-
NEW MEXICO-WEST TEXAS

CITY           SKY/WX    TMP DP  RH WIND       PRES   REMARKS
ALBUQUERQUE    CLOUDY    40   9  28 CALM      30.19R
EL PASO        PTSUNNY   51  16  24 CALM      30.17S
$$


........................KEY........................
SKY/WX - SKY CONDITION/WEATHER
TMP    - TEMPERATURE IN FAHRENHEIT
DP     - DEW POINT IN FAHRENHEIT
RH     - RELATIVE HUMIDITY IN PERCENT
WIND   - DIRECTION AND SPEED IN MILES PER HOUR (MPH)
VRB    - VARIABLE WIND DIRECTION
PRES   - MEAN SEA LEVEL PRESSURE IN INCHES OF MERCURY
         F - FALLING PRESSURE   R - RISING PRESSURE
         S - STEADY PRESSURE
VSB    - VISIBILITY IN MILES
HX     - HEAT INDEX IN FAHRENHEIT
WCI    - WIND CHILL INDEX IN FAHRENHEIT
TC     - TEMPERATURE IN CELSIUS WHICH IS ALSO KNOWN AS
         TEMPERATURE IN CENTIGRADE
AFB    - AIR FORCE BASE
         LUKE AFB IS LUKE AIR FORCE BASE
         DAVIS-MONTHAN IS DAVIS-MONTHAN AIR FORCE BASE
NAS    - NAVAL AIR STATION
         EL CENTRO NAS IS EL CENTRO NAVAL AIR STATION
N/A    - NOT AVAILABLE





USA.gov is the U.S. government's official web portal to all federal, state and local government web resources and services.